Wind_Speed
56 55 54 56 57 54 51 50 51 51 52 54 54 54 54 52 50 46 43 42 40 39 39 38 38 39 36 33 33 32 32 32 29 27 27 27 27 27 27 28 28 29 27 25 25 25 26 27 27 27 26 26 27 28 29 30 31 32 33 33 32 32 33 34 36 36 36 36 36 37 37 37 37 38 38 39 40 40 41 41 42 42 42 42 43 44
57 56 58 60 57 53 51 53 53 53 54 55 55 54 54 53 51 47 45 44 42 40 41 39 38 41 40 36 35 33 33 34 32 30 30 29 29 29 29 30 30 29 29 28 27 26 27 28 29 30 30 29 28 29 30 31 31 32 33 34 34 34 34 35 36 36 37 37 37 38 38 38 39 39 40 40 41 42 43 43 43 44 44 44 45 47
59 59 61 61 57 54 54 55 55 55 56 56 55 55 54 54 51 48 46 45 43 42 42 40 38 41 42 40 39 36 34 35 34 33 33 32 31 31 31 32 31 31 30 30 29 27 27 28 29 30 32 33 32 31 31 32 33 33 34 35 36 36 36 36 36 36 37 38 38 39 39 39 40 40 41 41 42 43 44 44 44 45 46 46 47 49
61 62 63 61 58 56 57 57 57 56 56 56 56 55 56 55 52 50 48 47 45 43 43 42 39 41 45 44 43 40 36 37 36 35 36 34 33 34 34 33 33 33 32 32 30 28 27 27 27 29 31 33 35 35 34 33 34 35 36 36 37 37 37 37 37 37 38 39 39 40 40 41 41 42 42 43 43 44 44 45 46 46 47 47 48 50
62 63 63 61 59 58 58 59 59 58 58 57 57 57 57 56 54 52 51 49 47 45 45 43 39 41 46 47 46 44 39 40 39 38 39 36 35 36 37 36 34 35 34 33 32 30 28 28 28 30 32 33 34 36 36 36 35 36 38 38 38 39 38 39 39 39 39 39 40 41 42 42 43 43 44 44 44 44 45 46 47 48 48 49 50 51
63 63 63 62 61 60 60 60 60 59 59 58 58 58 59 57 55 54 53 51 49 48 47 45 39 40 47 49 49 47 42 43 43 41 41 39 37 38 39 38 37 37 36 35 34 32 30 29 30 32 34 35 35 35 36 38 38 38 38 40 40 41 40 40 39 39 39 39 40 41 43 43 44 45 45 45 44 45 46 48 49 50 50 50 51 53
63 63 64 64 63 62 61 61 61 61 60 60 59 60 60 58 57 56 56 54 51 50 48 46 41 40 46 50 50 48 45 45 46 44 43 42 41 40 39 40 40 39 37 37 36 34 32 30 30 32 35 36 36 36 37 38 39 40 40 41 41 41 41 41 41 40 40 40 41 42 43 44 45 46 46 46 45 45 47 48 50 51 52 52 53 54
63 65 66 65 64 63 62 62 63 63 61 60 60 61 61 60 60 59 58 57 54 52 49 47 45 42 43 49 53 50 47 48 49 47 45 45 44 42 41 41 41 39 37 37 36 35 34 32 31 33 35 37 37 38 39 40 41 41 42 42 42 42 42 42 42 41 41 41 42 42 43 44 45 45 46 46 46 47 47 48 50 51 52 53 54 55
66 67 67 66 65 63 63 64 64 63 61 61 62 63 62 62 62 62 61 59 57 55 50 48 50 46 40 46 54 52 50 51 51 49 48 48 47 45 44 43 42 40 38 38 37 37 36 35 34 34 35 37 38 39 40 41 42 43 43 43 43 43 43 43 43 42 43 43 43 44 44 45 45 45 46 46 47 48 48 49 50 51 52 53 54 55
68 68 67 66 65 64 65 66 65 64 63 63 63 64 64 65 64 64 63 62 62 57 50 49 54 50 40 42 51 53 53 53 52 52 52 51 51 47 46 46 45 43 41 39 39 38 38 37 36 37 37 37 39 41 42 42 43 43 43 44 44 44 44 44 44 44 44 45 44 44 44 45 45 45 46 46 47 48 49 49 50 51 51 52 53 54
68 68 69 67 66 66 67 68 67 66 65 65 65 65 67 67 67 67 66 66 65 57 51 52 57 55 42 39 49 53 53 54 53 54 54 53 53 51 50 50 49 47 44 42 41 40 39 39 38 39 39 39 39 42 44 44 44 44 44 44 45 45 45 45 45 45 45 45 45 45 45 45 45 46 46 47 48 48 49 49 49 50 51 52 53 53
69 70 70 69 69 69 69 70 69 69 68 67 67 67 69 70 71 71 69 68 65 57 54 55 58 57 43 37 47 50 51 54 54 55 56 55 55 55 54 53 52 51 48 44 43 42 41 41 40 40 40 41 42 43 45 46 46 46 45 45 46 46 46 46 46 46 46 46 45 45 45 46 46 47 47 48 49 49 49 49 49 50 52 53 54 54
73 73 73 73 72 72 72 72 72 71 70 70 71 72 74 75 74 73 70 68 66 60 59 59 60 58 44 38 46 49 51 55 55 56 57 56 58 58 56 56 55 53 51 48 45 44 43 43 43 42 42 43 44 45 47 47 47 47 46 46 46 47 47 46 46 46 45 46 45 45 46 46 47 47 47 47 48 49 49 49 50 51 52 54 55 56
76 76 75 74 74 74 74 74 74 74 75 76 77 77 78 77 75 72 70 69 68 65 64 64 63 56 43 41 47 49 52 54 54 57 59 59 61 61 58 58 57 54 52 49 47 45 44 44 43 43 43 44 46 46 47 47 47 47 47 46 46 46 46 46 46 45 45 45 45 45 45 46 46 46 46 46 47 48 49 49 51 52 53 55 56 57
78 77 75 75 75 76 77 77 78 79 81 81 80 80 79 76 75 73 73 74 72 71 69 68 64 54 45 47 50 51 52 53 53 56 60 61 63 63 62 62 59 54 52 51 49 46 44 44 44 43 43 45 46 46 46 46 46 47 46 45 45 45 45 45 45 44 44 44 45 44 44 44 44 45 45 46 47 48 49 51 52 54 55 56 58 59
81 78 77 79 80 80 80 81 82 83 84 83 82 81 78 76 77 79 78 76 75 75 72 69 64 55 50 51 52 52 52 52 54 57 61 63 64 64 65 65 61 55 51 50 49 47 45 45 46 44 43 43 44 45 45 45 46 46 45 44 44 44 45 45 44 44 44 44 45 44 44 44 45 45 46 47 48 48 50 52 54 55 56 57 58 59
84 82 81 83 83 83 84 85 85 86 86 85 83 81 78 78 81 82 81 78 78 77 73 69 65 60 57 54 51 53 53 53 56 58 60 62 63 65 67 67 63 57 53 48 45 45 46 46 46 44 43 43 44 44 44 44 45 45 44 44 44 44 45 45 45 45 45 45 45 45 44 45 46 47 48 48 49 51 52 54 55 56 56 57 58 59
88 87 85 86 86 86 86 87 87 88 87 86 83 81 81 82 83 83 83 81 80 79 75 71 67 64 61 54 49 53 55 56 58 59 60 61 62 63 65 67 65 60 57 51 44 44 46 47 47 46 43 42 42 43 44 44 45 44 44 43 44 44 45 46 46 46 46 46 46 46 46 47 48 49 50 51 52 53 54 55 55 56 57 58 59 60
91 90 88 88 88 89 89 89 89 88 87 86 84 84 85 86 85 84 86 84 83 83 79 74 69 67 62 55 52 56 58 58 59 59 60 61 62 62 63 66 66 62 60 54 45 44 46 46 48 47 44 40 39 42 43 44 45 45 45 45 46 47 47 48 48 48 48 48 48 48 48 49 51 51 52 53 54 55 55 56 57 57 58 59 60 61
93 93 91 90 90 91 91 90 88 87 87 88 88 88 88 88 88 87 88 87 85 85 82 77 73 68 61 57 57 60 60 60 60 60 62 62 62 62 63 66 66 65 64 56 46 44 47 47 48 49 46 42 40 42 44 45 45 46 47 48 49 50 50 50 50 50 50 50 50 51 51 52 53 53 53 55 56 56 57 58 59 60 60 61 62 63
96 95 93 92 92 92 91 89 88 88 90 92 91 91 90 89 90 89 89 88 87 87 85 81 78 70 62 60 62 62 62 62 62 62 63 64 64 64 65 66 66 66 68 62 51 47 50 50 50 52 51 47 44 44 46 47 48 49 49 50 52 52 53 53 53 53 53 53 53 54 55 55 55 55 56 57 58 59 59 60 61 62 63 63 64 66
98 98 97 95 94 93 91 90 91 92 94 94 94 93 91 89 90 90 90 88 87 88 88 87 84 74 63 63 65 65 65 64 63 63 64 65 66 66 66 67 69 69 70 68 58 51 53 54 53 54 55 53 49 48 49 50 52 52 52 51 52 54 55 55 55 55 55 55 56 57 58 58 58 58 59 60 61 62 62 63 64 65 65 66 67 68
101 101 100 98 96 94 94 94 94 95 95 96 94 92 90 90 90 91 91 90 89 91 91 91 90 78 65 65 68 68 68 66 64 64 65 66 68 69 69 69 71 71 70 70 64 57 56 56 56 56 57 56 53 52 52 53 53 53 53 53 53 55 56 57 57 57 57 57 58 59 60 61 61 61 62 62 64 65 65 66 67 68 68 69 70 71
103 104 103 100 98 98 97 96 96 96 96 96 93 91 91 91 92 94 95 94 94 95 93 94 94 82 69 69 71 69 69 68 66 66 67 68 71 72 72 71 72 72 70 70 68 65 61 57 56 59 60 57 55 55 56 56 55 54 54 54 55 56 57 58 58 59 59 60 60 61 62 63 63 63 64 65 66 67 68 69 70 71 71 72 73 74
106 107 106 104 103 102 101 99 98 96 96 95 93 93 94 94 96 98 99 99 99 98 96 97 97 86 73 72 73 71 71 70 69 70 71 72 74 75 75 74 73 72 71 71 70 68 65 60 57 60 62 60 57 57 59 59 58 56 56 57 57 58 58 60 60 61 61 61 62 63 63 64 65 65 66 67 68 70 71 72 73 73 73 74 75 76
108 109 109 108 107 104 102 99 97 95 97 98 97 97 98 98 100 101 102 104 104 101 99 100 98 88 77 74 74 74 74 75 75 75 75 75 77 78 78 77 76 74 73 73 71 68 66 65 62 60 60 61 60 60 61 62 61 59 59 59 59 59 60 61 62 63 62 63 63 63 64 65 66 67 68 69 70 72 73 74 74 75 76 77 78 78
109 110 110 110 109 106 103 100 98 99 101 102 101 100 100 101 103 104 106 107 105 102 102 101 97 90 82 77 77 77 77 78 78 78 78 78 79 81 80 79 78 77 75 73 72 70 69 68 65 62 60 61 63 63 63 64 63 63 62 62 62 62 62 63 63 63 63 64 64 65 65 66 68 69 70 71 72 73 74 75 76 77 78 79 79 80
110 110 110 110 110 108 105 103 103 104 104 104 103 102 103 103 105 108 109 107 105 105 105 99 95 93 88 82 80 79 79 80 81 81 82 82 82 83 83 82 80 79 76 75 75 74 72 69 67 64 62 62 65 67 66 66 67 66 66 66 65 65 65 64 65 65 65 66 66 66 67 68 69 71 72 73 74 75 76 78 79 79 80 81 82 83
110 110 110 110 111 110 108 106 106 106 106 106 105 105 105 106 107 109 108 106 105 107 104 97 95 97 94 86 80 79 82 83 82 82 84 85 85 85 84 83 81 80 78 78 78 76 72 70 68 66 65 65 68 70 69 69 69 69 69 69 68 68 67 66 66 67 67 68 68 69 69 70 72 73 74 75 76 77 79 80 80 81 82 83 85 86
113 112 111 112 113 112 110 108 108 108 108 108 107 107 107 108 109 109 107 105 105 105 103 99 98 99 95 88 82 80 82 83 82 84 85 85 86 86 84 82 83 83 81 78 79 78 74 71 70 68 68 68 70 71 72 72 71 70 70 71 71 70 69 68 68 69 70 70 71 71 72 73 74 75 76 77 79 80 81 81 82 83 85 86 87 87
115 115 114 115 116 114 111 109 109 110 111 110 110 109 108 108 108 107 106 104 105 106 105 104 104 101 94 88 85 84 84 85 85 85 84 84 84 84 84 84 84 85 83 79 79 79 77 75 72 71 71 70 70 71 73 74 74 73 72 72 72 72 71 71 71 71 72 72 73 73 74 76 77 78 79 80 81 82 82 83 84 85 87 87 88 89
119 118 117 118 118 116 113 111 111 113 115 115 113 111 108 106 106 106 106 106 107 108 108 108 108 103 93 90 91 90 89 89 87 84 84 84 84 85 86 88 87 86 84 82 81 80 79 78 76 74 73 72 71 72 74 75 76 76 76 74 74 73 73 74 73 73 74 75 75 76 77 79 80 81 82 83 83 83 84 85 86 87 88 89 90 91
123 122 121 121 121 118 114 114 115 118 120 119 115 109 106 106 107 109 109 109 108 109 110 110 108 103 97 95 95 93 93 92 90 89 88 88 88 89 89 90 89 87 85 84 83 82 81 80 79 78 77 76 75 76 77 76 76 77 77 76 76 76 76 76 75 75 76 77 78 79 80 81 82 83 85 85 86 86 87 88 89 89 90 91 92 92
125 125 124 124 124 122 118 118 121 123 123 120 114 109 108 109 111 111 110 107 106 108 111 110 108 105 102 101 99 97 98 98 96 95 95 94 93 93 92 91 89 88 87 86 86 86 85 84 83 81 80 79 79 79 79 78 77 76 77 77 78 78 78 78 78 78 78 79 80 81 82 83 84 86 87 88 89 89 89 90 90 91 92 92 92 93
122 122 123 124 125 124 122 122 126 128 126 120 116 114 114 114 114 113 111 109 109 110 112 112 110 108 106 105 104 103 102 101 101 100 99 98 97 96 95 94 93 92 92 91 91 90 88 86 83 81 80 80 80 80 79 78 78 77 78 78 79 80 80 80 80 80 80 81 82 83 84 86 87 89 90 90 90 91 91 91 92 93 94 93 94 94
118 118 119 121 122 123 123 124 127 128 125 122 119 119 118 116 116 117 117 115 114 115 116 115 111 108 106 104 104 105 105 104 104 102 98 97 96 96 95 95 95 96 95 94 93 91 89 87 84 83 83 83 82 81 80 79 79 78 78 79 79 80 80 80 80 81 82 83 84 85 87 88 90 90 90 90 91 92 93 94 95 95 95 95 95 95
113 115 117 119 120 121 122 123 124 125 124 121 118 115 114 114 116 119 121 119 117 117 117 114 109 105 104 104 105 106 106 106 105 100 94 93 95 95 96 95 95 95 93 92 91 89 87 86 85 84 84 83 82 81 80 79 79 79 79 79 79 79 80 81 83 84 85 86 87 88 89 90 90 90 91 92 93 94 95 96 96 96 95 95 95 95
111 113 114 117 118 119 120 121 122 123 122 116 110 106 108 111 114 118 121 120 115 112 111 109 106 104 104 105 107 107 108 109 105 97 92 94 97 98 97 96 94 93 91 89 87 85 85 84 84 85 84 83 83 82 81 81 81 81 81 82 82 83 84 85 86 86 86 87 88 89 90 90 90 91 92 94 95 95 95 95 95 95 95 94 95 95
113 113 114 116 117 118 120 121 122 122 118 110 103 101 105 110 112 116 121 118 109 103 103 104 103 103 104 106 108 109 110 108 103 96 93 95 98 97 96 93 92 91 89 87 86 85 85 85 84 84 84 84 84 84 85 85 85 85 85 85 86 86 87 87 87 87 88 89 89 90 91 91 92 93 93 94 94 94 94 94 94 94 94 95 96 96
116 116 117 118 118 119 119 120 121 121 118 110 103 101 105 109 113 118 121 114 102 96 99 102 103 104 105 105 107 109 109 106 101 97 95 94 94 93 92 91 89 88 87 85 84 84 83 83 83 83 83 83 84 85 85 86 87 87 87 87 88 88 89 89 89 90 91 91 92 92 92 92 93 93 93 94 94 94 95 95 95 95 96 96 97 96
120 120 120 120 121 121 121 122 122 121 117 111 105 103 106 111 117 122 119 109 99 97 100 103 105 107 106 105 107 108 107 105 102 97 94 93 91 90 90 89 88 87 85 84 83 82 82 82 82 82 82 82 83 83 84 85 86 86 87 88 88 89 89 90 91 91 92 92 92 92 92 93 93 93 94 94 95 95 95 96 96 96 96 96 96 96
125 125 125 125 125 125 125 125 125 123 119 112 105 104 109 115 120 119 112 103 99 99 101 103 106 107 106 105 107 107 106 105 102 98 94 91 89 87 87 87 85 83 82 81 81 81 81 81 81 81 81 82 82 83 83 84 85 86 87 88 89 89 90 90 91 91 91 91 91 92 92 93 93 93 94 94 94 94 94 94 95 95 95 96 96 96
129 130 131 130 130 129 130 130 130 127 122 115 110 110 114 117 117 114 109 106 104 103 103 104 106 108 107 107 106 106 106 106 105 102 99 95 92 89 87 86 85 83 81 80 79 79 79 80 80 81 81 82 83 83 84 85 85 86 87 88 88 89 90 90 91 91 91 91 92 92 92 92 93 93 93 93 93 93 93 93 94 94 95 95 96 96
133 133 133 133 133 134 135 135 133 130 126 121 119 119 119 119 118 117 115 114 112 108 106 106 105 105 106 106 106 106 107 107 107 107 106 104 101 98 94 91 90 89 88 87 85 84 84 84 84 84 83 83 84 84 85 85 86 86 87 88 88 89 89 90 90 91 91 91 91 91 92 92 92 92 92 92 93 93 93 93 94 95 95 96 97 97
136 135 135 135 136 137 137 137 135 133 131 129 127 125 124 123 121 119 118 117 116 114 112 109 106 105 106 107 107 107 107 107 107 108 108 108 107 105 102 100 99 98 96 95 94 92 91 90 89 88 88 87 87 87 88 88 89 89 89 89 90 90 90 90 90 90 91 91 91 92 92 92 92 93 93 94 94 95 95 95 96 96 97 98 99 101
136 136 137 138 139 139 139 138 137 136 134 134 132 130 129 128 126 124 121 120 119 117 115 113 111 109 108 108 106 105 105 105 106 107 107 107 107 106 105 104 104 104 103 101 100 99 98 98 97 96 95 94 94 95 95 95 94 94 94 93 93 93 92 92 91 92 92 93 93 94 95 95 95 96 96 97 97 98 98 99 99 100 101 103 104 106
137 138 138 139 140 140 139 138 138 137 137 136 135 134 133 132 132 130 127 126 124 122 121 120 118 116 115 114 112 109 108 107 106 106 107 106 106 106 105 105 105 106 106 106 106 104 104 104 105 105 104 104 103 103 103 102 101 101 100 100 100 99 98 97 97 97 97 98 99 99 100 100 101 101 102 102 103 103 104 104 105 106 107 108 110 111
138 139 140 140 139 139 138 137 137 137 137 137 136 136 135 134 134 133 131 129 128 127 126 125 125 123 122 121 121 119 118 116 115 114 113 111 110 109 108 107 107 107 107 108 108 108 107 108 109 110 111 111 111 110 110 109 108 107 107 107 108 107 107 106 105 105 104 105 105 106 107 107 108 108 109 109 109 109 110 110 111 111 112 113 114 115
137 138 140 140 139 139 137 136 136 137 138 138 137 136 135 135 135 134 132 131 130 129 129 128 127 127 126 125 124 124 123 123 123 123 122 120 119 117 115 114 113 112 111 110 110 110 110 110 110 112 113 115 115 115 115 114 114 113 113 113 114 114 114 114 113 112 112 112 112 112 113 113 113 114 114 114 115 115 115 116 116 116 117 117 117 117
132 135 136 138 139 138 136 135 137 139 139 138 137 137 136 135 134 133 132 132 131 131 130 130 129 128 128 127 126 126 125 125 126 126 126 125 125 124 123 122 121 120 118 117 116 115 115 114 114 114 114 116 118 118 118 118 119 119 119 119 119 119 120 120 120 119 118 118 117 117 117 117 117 118 118 118 119 119 119 119 119 119 119 119 118 119
127 129 131 133 135 134 133 133 136 138 138 136 135 137 137 135 133 132 133 132 132 131 131 130 130 129 129 129 128 127 127 127 127 127 127 127 126 126 126 125 125 125 124 123 123 122 122 121 120 119 119 119 120 120 121 122 122 123 123 123 123 123 124 124 124 123 122 121 121 120 120 120 121 121 121 121 121 121 121 121 121 121 121 122 122 123
Wind_Direction
247 249 251 251 253 257 260 261 260 260 262 264 267 269 271 272 273 273 273 272 272 273 273 274 276 277 276 276 276 277 278 279 279 280 280 281 282 283 285 285 286 288 289 289 288 288 289 289 288 285 281 278 279 279 279 279 280 280 280 279 278 277 276 275 276 276 277 278 279 279 279 279 280 279 279 280 281 281 281 281 281 282 282 283 283 283
248 250 251 252 255 257 257 258 258 259 261 263 265 267 268 269 270 271 270 270 271 272 272 273 274 276 277 277 276 277 280 281 282 282 281 280 281 283 283 284 285 288 289 289 289 290 291 291 291 290 288 284 280 279 279 279 279 278 278 278 277 275 274 274 275 276 277 277 277 277 277 277 278 278 278 279 280 280 281 281 282 283 284 284 284 284
248 249 251 253 255 255 256 257 257 258 260 261 263 264 265 266 268 269 269 269 269 270 271 272 273 275 277 277 277 277 278 280 282 284 283 281 282 283 283 284 285 287 288 289 290 292 292 291 290 289 288 287 285 282 281 280 280 279 277 277 277 276 275 275 274 274 274 274 274 275 275 276 277 277 277 278 278 279 280 281 282 282 283 283 283 283
248 249 252 254 254 255 255 256 256 256 257 259 260 261 263 264 266 267 267 267 268 268 269 270 271 274 276 277 277 277 278 279 280 282 281 281 283 284 283 283 285 287 287 288 289 290 290 289 287 284 283 283 284 284 283 282 281 281 280 278 277 277 277 276 275 274 274 274 274 274 275 275 275 274 275 276 276 278 279 280 280 280 281 281 281 281
248 250 252 253 253 253 253 254 255 255 256 257 258 259 261 263 265 265 265 265 266 266 267 268 269 272 275 276 277 278 280 280 281 281 280 280 282 283 282 282 284 284 285 286 286 287 288 288 286 283 281 280 280 282 284 283 282 281 281 281 280 279 278 278 277 277 276 277 276 275 275 274 274 273 273 274 276 277 278 278 279 279 279 280 280 280
247 249 251 251 251 252 252 252 253 254 255 256 257 258 261 262 263 263 263 263 263 264 265 267 268 269 273 275 276 278 280 280 280 281 282 282 281 281 282 283 283 283 285 285 286 286 287 287 287 286 284 282 281 280 281 282 282 281 281 281 282 283 282 281 281 280 280 279 278 277 277 277 276 276 276 276 277 278 279 279 280 280 280 281 281 282
246 248 249 250 250 250 251 252 253 254 254 255 257 259 260 261 261 261 262 262 262 263 264 266 266 265 269 274 275 277 279 280 280 281 282 283 281 280 281 282 283 283 284 285 286 286 285 286 287 288 287 285 284 283 281 281 281 282 281 282 282 283 283 283 283 283 282 281 280 279 279 278 278 278 279 280 280 279 280 280 281 281 282 282 282 282
244 246 247 249 249 250 251 252 253 254 255 256 257 258 258 259 259 260 260 261 261 261 262 265 264 262 265 271 274 276 278 279 280 281 282 282 282 282 282 282 282 283 284 284 285 285 285 286 287 286 285 285 285 284 284 283 283 283 283 283 283 282 282 282 282 282 281 280 279 278 277 277 277 278 279 280 280 280 279 279 279 280 281 281 281 282
244 246 248 250 251 252 252 253 253 254 255 255 255 256 257 257 258 259 260 261 261 260 261 263 264 262 260 265 271 275 276 277 280 282 283 282 282 282 282 282 282 282 282 282 283 284 285 286 287 286 285 285 286 285 285 285 286 286 286 285 285 283 282 281 280 280 279 278 277 277 277 277 278 279 279 280 281 281 280 280 280 280 281 282 283 283
244 246 248 249 250 251 251 252 252 252 252 253 254 255 256 257 258 259 260 260 259 260 261 262 263 261 257 259 267 272 274 278 281 283 283 283 283 283 283 283 282 282 282 282 284 286 286 288 289 288 287 286 286 286 286 287 287 287 287 287 286 284 283 282 281 280 279 278 278 278 278 279 280 280 281 281 281 281 281 282 282 283 283 283 284 284
244 246 247 248 249 249 250 250 251 251 251 251 252 254 256 257 258 258 258 259 259 260 260 260 261 261 257 255 260 268 275 279 280 281 282 283 285 285 285 285 285 285 285 286 288 288 288 289 290 290 290 287 286 287 288 288 288 288 288 288 287 285 284 283 282 281 280 280 279 280 280 280 280 281 281 281 281 281 282 282 283 284 284 284 284 285
242 243 245 245 246 247 248 249 250 250 251 251 253 254 255 256 256 256 257 258 261 261 260 259 259 260 259 253 257 266 274 275 277 279 281 283 284 285 286 286 286 288 289 290 290 291 292 292 291 292 291 289 288 289 288 289 289 289 288 287 286 285 284 284 283 282 282 281 281 282 282 282 281 282 282 283 283 283 283 284 284 285 285 286 286 286
241 242 243 245 246 247 249 250 251 252 253 252 252 252 252 253 254 255 258 260 262 261 258 257 257 259 259 255 257 264 269 271 275 277 279 281 282 282 284 284 285 287 289 290 291 291 292 291 292 292 291 289 289 289 288 289 289 289 289 287 286 285 285 285 284 284 284 284 284 284 283 283 283 283 283 284 284 285 286 286 286 286 287 287 288 288
243 244 246 247 249 250 251 251 252 252 252 251 251 251 251 253 255 258 259 260 260 258 257 256 257 260 259 256 257 261 264 267 272 275 278 279 279 280 282 283 284 286 288 289 290 290 290 289 289 289 288 287 288 288 288 288 289 289 288 287 287 286 286 286 285 285 285 285 285 284 283 282 283 283 284 285 285 286 287 288 289 289 289 290 290 291
244 244 246 247 248 249 249 250 250 250 251 251 252 253 254 256 258 258 257 257 258 258 258 259 261 262 258 256 258 259 262 265 269 273 275 276 277 280 281 282 283 285 287 288 289 289 289 287 286 286 285 285 286 287 287 287 288 288 288 287 287 287 287 286 287 286 286 285 284 283 283 283 283 284 285 285 285 286 287 289 290 290 291 292 292 292
243 243 244 245 246 247 248 249 249 250 251 252 253 254 256 257 258 258 257 258 259 260 261 263 265 263 258 256 258 259 261 264 266 269 271 273 276 279 280 282 284 287 287 287 288 289 286 284 284 285 285 285 285 286 286 287 288 289 288 288 288 288 288 288 288 286 285 285 284 284 284 285 285 285 285 284 284 286 288 290 290 291 292 292 292 292
243 242 243 244 246 246 247 249 250 251 253 254 255 256 258 258 258 259 260 260 261 262 262 263 264 262 258 258 260 260 261 262 264 266 269 272 275 277 279 282 286 289 289 288 288 286 284 283 283 283 284 285 285 285 286 287 288 287 286 288 290 290 290 289 287 286 286 286 286 286 286 286 286 285 284 284 286 288 290 291 292 293 294 294 294 293
242 242 242 244 246 247 248 249 251 253 254 256 257 258 258 258 258 260 261 261 261 262 261 261 262 261 261 262 260 260 260 261 262 265 267 269 272 274 277 280 285 289 289 289 287 283 282 283 283 283 283 284 285 285 286 287 288 288 287 289 291 291 290 288 287 287 287 287 286 285 285 286 286 286 285 285 287 289 291 292 293 295 296 296 296 295
243 243 243 244 246 247 248 250 251 253 255 257 258 258 258 258 259 260 261 261 261 262 261 261 261 261 263 263 260 259 260 260 262 263 265 267 269 271 273 275 280 284 286 287 287 283 282 283 284 285 286 285 285 285 285 287 289 290 289 290 291 291 290 289 288 287 286 285 284 283 283 285 286 286 286 287 288 290 291 292 294 295 296 297 297 297
245 245 245 245 247 248 249 251 253 255 256 257 257 257 258 259 259 260 261 262 262 263 264 263 262 262 263 262 260 259 260 260 261 263 264 266 268 269 270 272 275 278 280 283 285 284 283 284 285 286 285 284 283 284 285 287 288 289 289 289 289 290 291 290 288 286 284 284 284 282 282 284 285 286 287 288 289 290 292 293 294 295 296 296 297 296
245 246 246 246 247 248 250 252 254 254 255 256 256 257 258 259 261 261 262 264 265 266 266 266 264 263 262 262 260 260 261 261 261 263 265 266 267 267 268 270 272 273 275 279 283 284 284 285 284 284 283 282 281 283 285 286 287 288 288 288 288 289 290 290 288 286 285 284 284 283 283 284 285 286 287 289 290 291 292 293 294 295 296 296 296 296
246 246 246 246 246 248 249 251 252 252 254 255 256 258 259 260 262 264 264 265 267 267 267 267 265 263 261 262 262 261 261 261 262 264 265 266 266 266 267 269 270 270 272 277 281 284 284 283 283 282 282 282 282 283 285 285 285 286 287 287 287 287 288 288 288 287 286 285 284 284 285 286 286 287 289 290 291 292 293 294 294 295 295 295 296 296
246 246 247 247 247 247 248 249 250 252 253 255 257 259 261 262 263 265 265 265 265 265 265 266 265 264 262 264 263 263 264 265 265 266 266 266 266 266 266 267 268 270 272 276 281 282 281 281 282 281 281 282 284 285 285 285 285 285 286 287 287 286 286 286 287 287 287 286 285 285 285 286 286 287 289 290 291 292 293 294 294 294 294 294 295 296
247 248 248 248 248 247 248 248 250 251 253 255 257 259 261 261 262 263 263 263 262 263 263 264 265 265 264 265 265 265 267 268 268 268 268 267 267 267 267 267 269 271 273 276 279 280 280 280 280 280 281 283 285 286 286 286 286 286 286 286 285 284 284 285 286 286 286 285 285 285 285 285 286 287 288 289 290 291 292 293 293 293 293 293 294 295
248 248 249 248 248 248 248 249 250 252 254 256 257 258 258 259 260 260 261 261 261 261 262 264 266 266 265 265 267 268 269 269 268 268 267 268 268 268 269 270 271 273 275 276 277 279 281 280 277 278 282 285 286 286 286 286 286 286 284 283 283 282 282 283 283 283 284 284 284 284 285 285 286 287 288 288 289 290 291 292 292 292 293 293 294 295
248 249 249 249 249 249 250 251 252 253 254 255 255 255 256 257 258 259 260 260 261 263 264 265 267 268 267 267 269 269 269 268 267 267 268 269 270 270 271 272 273 274 275 276 278 279 280 279 278 279 282 285 286 285 285 286 286 285 283 282 282 281 281 281 281 282 283 284 284 284 284 285 285 286 286 287 288 289 290 291 291 291 292 292 293 294
250 250 251 251 251 251 251 251 252 252 253 254 254 255 256 257 258 259 260 261 263 264 265 266 268 270 269 268 268 268 268 269 269 270 270 270 270 271 272 273 274 275 275 276 278 279 278 279 281 282 282 283 283 283 284 285 285 284 282 281 281 281 280 280 281 282 283 285 285 285 284 284 284 285 285 286 288 289 289 290 290 290 291 292 293 293
250 251 252 252 253 252 251 251 251 252 252 254 254 255 256 257 258 259 260 262 264 264 265 267 270 271 270 268 268 269 270 270 270 271 271 271 271 272 273 273 274 275 276 276 276 277 278 280 281 282 282 282 281 281 282 283 283 283 282 281 281 280 280 280 281 283 284 284 284 284 284 284 284 285 285 286 288 288 289 289 289 290 291 292 293 293
249 250 251 252 253 253 253 252 252 252 253 253 254 255 256 257 258 259 261 263 264 266 268 269 270 270 270 269 269 270 271 271 271 272 272 272 273 272 273 275 276 276 276 276 276 277 279 279 280 280 280 279 279 280 281 281 281 282 282 282 281 281 280 281 282 283 283 283 283 283 284 284 284 284 285 286 287 287 287 288 288 290 291 292 293 293
249 249 250 251 252 253 253 253 253 253 253 253 254 255 255 257 258 260 261 263 265 267 268 268 267 267 268 270 270 270 270 271 271 271 272 272 273 274 275 275 276 276 275 276 278 279 279 278 279 279 278 278 278 280 281 281 281 281 282 281 281 281 281 282 282 282 281 282 282 283 283 283 284 284 284 285 286 286 286 287 288 289 291 292 293 293
248 249 249 250 251 252 252 253 254 255 254 254 253 254 255 256 258 260 262 263 264 265 266 266 266 266 268 271 271 269 269 270 270 270 272 273 273 274 274 274 274 275 276 277 277 278 279 279 279 278 277 277 278 279 280 281 282 281 280 280 280 280 281 281 281 281 281 281 282 282 283 283 283 284 284 284 285 285 286 286 288 289 291 292 292 293
248 248 249 250 251 252 252 253 254 255 256 255 255 255 256 258 259 260 261 262 262 264 265 266 267 268 269 270 269 269 269 270 270 270 270 270 271 272 273 274 274 275 276 276 276 277 278 278 277 276 276 277 277 278 278 279 279 279 279 279 279 279 280 280 280 280 281 281 281 282 282 282 283 283 284 284 285 285 285 286 288 289 290 292 293 293
248 249 250 251 252 253 253 254 255 255 256 256 257 258 259 259 260 260 260 261 263 265 266 267 268 270 270 269 269 270 270 270 269 269 269 269 270 272 273 273 274 274 274 275 275 275 274 274 274 274 275 276 276 276 276 276 277 277 278 278 278 278 278 278 279 279 279 279 280 280 280 281 282 282 283 284 284 285 285 286 288 289 290 292 292 293
248 249 250 251 252 253 253 254 255 255 255 257 258 259 259 260 260 261 262 263 265 266 267 268 269 270 270 270 270 270 269 269 270 270 271 271 271 272 272 272 272 273 273 272 272 272 272 272 273 274 275 276 276 275 275 276 275 275 276 276 276 276 276 277 277 277 277 277 278 278 279 280 281 282 283 284 284 285 285 286 288 289 290 291 291 291
248 249 250 250 251 252 252 253 254 254 255 257 257 258 258 259 260 262 263 263 264 265 266 267 268 269 270 270 270 270 270 269 270 270 271 272 272 272 272 271 271 270 270 270 270 271 273 274 275 276 276 275 275 275 275 275 275 274 274 274 274 274 274 275 275 275 275 276 277 278 279 280 280 281 282 283 284 284 285 286 287 289 289 290 289 290
250 250 251 251 251 252 252 252 253 254 255 256 256 257 258 259 260 261 262 261 262 263 264 265 267 269 270 271 271 271 270 269 269 270 271 272 272 272 271 270 269 270 270 270 271 272 273 274 275 275 274 274 275 275 275 275 274 273 273 273 272 272 273 273 274 275 275 276 277 278 279 279 280 281 282 282 283 284 285 286 287 288 288 288 288 288
254 254 254 254 253 253 253 253 253 254 255 255 256 258 260 261 262 262 262 261 261 262 264 265 267 268 270 270 271 271 270 270 269 270 271 271 270 269 269 269 270 271 271 272 273 274 274 273 273 273 273 274 274 275 274 274 273 273 273 272 271 271 271 272 274 275 275 276 276 277 278 279 280 281 281 282 283 284 285 286 286 286 286 286 286 287
254 255 256 257 257 257 257 256 255 254 254 255 257 259 262 263 263 263 263 262 262 264 265 267 267 268 269 269 270 269 269 268 268 269 270 269 268 268 268 269 270 271 272 273 273 273 272 271 271 271 271 272 272 272 271 271 272 272 272 271 271 271 272 273 273 274 274 274 275 277 278 278 279 280 281 282 283 284 284 284 284 284 284 285 285 286
251 252 254 256 257 258 260 260 260 260 259 258 259 261 263 263 264 264 264 264 264 267 269 270 269 269 269 269 269 269 268 268 268 268 268 268 268 269 270 270 270 270 270 271 271 271 271 270 270 270 270 269 269 269 269 270 270 271 271 271 271 271 272 272 272 273 273 274 275 276 277 278 278 279 280 281 282 282 282 283 283 283 283 284 285 286
250 251 252 253 255 257 258 260 261 263 263 264 264 264 264 265 265 264 263 264 266 269 271 271 270 269 269 270 270 270 270 269 269 268 268 268 269 270 270 270 270 269 269 269 269 270 269 269 269 269 269 269 269 269 269 269 270 270 271 271 271 272 272 272 273 273 274 275 275 276 276 277 278 278 279 279 280 280 281 281 281 282 282 283 284 285
251 251 252 253 254 255 256 257 258 260 261 263 263 264 264 265 265 266 267 269 271 271 271 270 270 269 269 269 270 271 271 271 271 270 270 270 270 270 270 270 269 269 269 269 269 268 268 268 268 268 268 268 268 269 269 269 270 270 271 271 272 272 272 273 274 274 274 275 275 275 276 276 277 277 278 278 279 280 280 281 281 282 282 283 284 284
252 252 252 253 253 254 255 257 257 258 259 259 259 260 261 262 264 267 269 270 269 268 267 268 268 269 270 271 272 273 274 275 274 273 273 272 271 271 271 270 270 270 269 269 268 268 268 267 267 267 267 268 268 268 269 270 270 271 271 271 272 272 273 273 274 274 274 274 274 275 275 276 276 277 277 278 278 279 280 280 281 282 282 283 283 284
251 252 253 254 254 255 255 256 257 258 259 259 258 257 258 259 261 263 264 264 263 264 265 267 269 271 272 274 275 276 277 277 278 278 278 277 276 275 274 274 274 274 274 273 272 271 270 270 269 268 268 268 268 269 270 270 271 271 272 272 273 273 273 273 274 274 274 274 274 275 275 276 276 276 277 277 278 279 280 281 281 282 282 283 284 285
251 252 253 254 255 255 256 256 257 258 259 259 258 257 258 258 259 260 261 262 263 264 265 266 268 270 271 272 273 274 275 277 278 279 280 281 281 280 280 279 280 280 280 279 278 277 276 274 273 272 271 271 270 271 271 272 272 273 273 273 273 273 273 273 273 273 273 274 274 275 275 276 277 277 278 279 280 281 282 282 282 283 284 285 286 288
251 252 253 253 254 255 256 257 257 258 258 258 258 257 258 258 259 259 260 261 262 262 263 264 264 265 267 268 270 271 273 274 276 277 279 280 281 282 283 283 284 284 283 283 282 281 281 279 278 277 276 276 276 276 276 276 276 276 276 276 275 275 275 274 274 274 274 275 276 277 278 278 279 280 281 282 283 284 285 285 285 286 287 288 290 291
251 252 253 253 254 255 256 256 257 258 258 258 258 258 258 258 258 258 259 260 261 261 262 262 262 263 264 266 267 269 271 273 274 276 277 278 280 281 282 283 284 284 283 283 283 283 283 283 283 282 282 282 282 282 282 282 282 282 282 281 280 280 279 278 278 278 278 279 280 281 282 283 284 284 285 286 287 288 289 289 290 291 291 292 293 294
252 252 253 254 254 255 256 256 257 258 258 259 259 259 259 259 259 259 259 259 260 261 261 262 262 263 263 265 266 267 269 270 271 273 274 275 277 278 279 280 281 281 282 283 283 283 284 285 285 285 285 285 285 286 286 286 286 286 286 286 285 285 284 283 283 283 283 284 285 286 287 287 288 289 289 290 291 292 292 293 293 294 294 294 295 295
253 253 254 254 255 256 256 257 258 258 259 259 259 259 260 260 260 260 260 259 260 260 261 262 262 263 263 264 265 266 267 268 269 269 271 271 272 273 275 276 277 278 279 280 281 282 282 283 284 285 285 285 285 286 286 286 286 287 287 287 287 286 286 286 286 286 287 288 289 289 290 290 291 292 292 293 293 293 294 294 294 294 294 294 294 295
253 254 255 255 256 256 257 258 258 259 259 260 260 260 261 261 261 261 261 261 261 260 260 261 262 262 263 263 264 264 265 266 266 267 268 269 270 270 271 272 273 274 275 276 277 278 279 280 280 281 282 282 283 283 284 285 285 286 286 286 286 286 286 286 287 287 288 289 289 290 290 291 291 292 292 292 293 293 293 293 293 293 293 294 294 295
253 254 255 256 256 257 257 258 258 259 259 260 261 261 261 261 261 262 262 262 262 262 262 262 262 262 262 263 263 264 264 265 265 266 266 267 268 269 269 270 271 272 273 273 274 274 275 275 276 276 277 278 279 281 282 283 283 283 284 284 284 285 285 286 287 288 288 288 289 289 289 290 290 290 291 291 291 291 292 292 293 293 294 295 296 297
252 253 254 255 256 256 257 257 258 258 259 259 260 260 261 261 262 262 262 262 263 263 263 263 263 263 263 263 263 263 264 264 265 265 266 267 268 268 269 270 271 271 272 272 272 272 273 273 274 274 274 275 276 278 279 279 280 281 282 282 282 283 284 285 286 287 287 287 287 288 288 288 289 289 290 290 291 292 292 293 294 295 296 297 297 298
Height
10760 10763 10765 10763 10763 10769 10774 10775 10774 10774 10774 10775 10776 10778 10779 10781 10784 10787 10789 10788 10789 10789 10789 10789 10788 10787 10789 10791 10791 10791 10790 10790 10792 10793 10793 10793 10793 10793 10792 10792 10791 10791 10792 10793 10793 10793 10792 10791 10790 10789 10789 10788 10787 10786 10785 10784 10783 10782 10780 10780 10779 10778 10777 10776 10775 10774 10774 10773 10772 10772 10771 10770 10770 10769 10768 10766 10765 10764 10763 10762 10761 10760 10760 10759 10758 10757
10755 10758 10757 10756 10761 10767 10769 10767 10768 10768 10769 10770 10771 10773 10774 10775 10779 10783 10784 10784 10785 10785 10784 10786 10786 10783 10784 10786 10786 10788 10787 10786 10788 10789 10789 10790 10790 10790 10789 10789 10789 10788 10789 10789 10789 10789 10789 10788 10786 10785 10784 10784 10783 10783 10781 10781 10780 10778 10777 10775 10775 10774 10773 10772 10771 10770 10770 10769 10768 10767 10766 10766 10765 10764 10763 10762 10761 10759 10758 10757 10756 10755 10754 10753 10752 10750
10751 10751 10748 10751 10758 10762 10762 10761 10762 10763 10764 10765 10767 10768 10769 10770 10774 10778 10779 10780 10781 10782 10780 10782 10783 10779 10778 10781 10781 10784 10785 10783 10784 10785 10784 10785 10786 10786 10786 10785 10785 10785 10785 10785 10786 10786 10785 10785 10783 10782 10780 10779 10778 10778 10778 10777 10776 10774 10773 10772 10770 10770 10769 10768 10767 10766 10765 10764 10764 10763 10762 10761 10761 10759 10758 10758 10756 10755 10754 10753 10752 10750 10749 10748 10746 10744
10744 10743 10742 10748 10753 10755 10755 10755 10756 10757 10758 10760 10761 10762 10763 10764 10769 10772 10774 10775 10776 10778 10777 10778 10781 10777 10773 10775 10775 10779 10782 10780 10781 10781 10780 10782 10782 10782 10782 10782 10782 10782 10782 10782 10782 10783 10782 10781 10781 10779 10777 10775 10774 10773 10773 10773 10772 10770 10769 10768 10767 10765 10765 10763 10763 10762 10761 10760 10759 10758 10757 10756 10755 10754 10753 10752 10751 10750 10749 10748 10746 10745 10743 10742 10741 10738
10737 10736 10738 10742 10745 10747 10748 10748 10749 10751 10752 10754 10756 10756 10757 10759 10764 10766 10767 10770 10772 10773 10773 10774 10778 10775 10769 10769 10770 10773 10777 10776 10776 10776 10776 10779 10780 10777 10777 10778 10779 10779 10778 10778 10779 10779 10779 10777 10777 10775 10773 10772 10771 10769 10768 10768 10767 10766 10764 10763 10762 10761 10760 10759 10758 10758 10757 10756 10755 10754 10752 10751 10750 10749 10748 10747 10746 10745 10744 10742 10740 10739 10738 10736 10735 10732
10731 10731 10732 10734 10737 10740 10741 10741 10742 10744 10747 10748 10750 10750 10751 10754 10757 10759 10761 10764 10766 10768 10769 10771 10776 10774 10765 10763 10764 10768 10772 10771 10770 10771 10771 10774 10775 10774 10773 10773 10774 10774 10774 10774 10774 10775 10774 10773 10772 10770 10768 10767 10767 10766 10764 10763 10762 10761 10760 10759 10758 10756 10756 10755 10754 10753 10753 10751 10750 10749 10747 10746 10744 10743 10742 10742 10742 10740 10738 10736 10734 10733 10732 10730 10729 10726
10725 10725 10725 10726 10729 10732 10734 10735 10736 10738 10741 10743 10745 10745 10746 10748 10750 10752 10754 10757 10761 10763 10764 10767 10772 10772 10764 10759 10759 10762 10766 10765 10765 10767 10767 10768 10769 10769 10770 10769 10769 10770 10769 10769 10770 10770 10770 10769 10768 10766 10764 10762 10762 10761 10760 10758 10757 10756 10756 10755 10754 10752 10751 10750 10749 10749 10748 10746 10745 10744 10742 10741 10739 10738 10737 10737 10736 10736 10734 10732 10729 10727 10726 10725 10723 10721
10718 10716 10717 10719 10721 10725 10729 10730 10730 10732 10735 10738 10739 10738 10739 10741 10742 10745 10746 10749 10754 10757 10761 10764 10765 10768 10767 10757 10752 10757 10761 10759 10758 10761 10763 10763 10763 10764 10766 10765 10765 10765 10765 10765 10765 10765 10765 10764 10763 10762 10760 10758 10757 10756 10754 10753 10752 10751 10751 10750 10749 10748 10747 10745 10745 10744 10742 10741 10740 10739 10737 10736 10734 10733 10732 10731 10730 10730 10728 10726 10725 10722 10720 10718 10717 10715
10709 10710 10712 10714 10716 10721 10723 10722 10723 10726 10730 10732 10731 10730 10732 10733 10735 10737 10739 10743 10747 10750 10758 10760 10756 10762 10768 10759 10749 10751 10754 10753 10753 10755 10756 10757 10757 10760 10760 10760 10760 10760 10761 10761 10761 10760 10760 10759 10759 10757 10755 10754 10752 10751 10749 10748 10747 10746 10745 10745 10744 10742 10741 10740 10739 10739 10737 10736 10735 10733 10732 10730 10729 10728 10727 10726 10725 10723 10722 10720 10719 10717 10715 10713 10711 10709
10704 10705 10706 10708 10712 10714 10714 10714 10716 10719 10722 10724 10723 10723 10724 10725 10728 10729 10732 10735 10737 10744 10755 10755 10748 10753 10766 10762 10749 10747 10747 10747 10749 10748 10749 10750 10750 10753 10754 10753 10754 10754 10755 10756 10756 10756 10755 10754 10753 10752 10751 10749 10748 10746 10744 10743 10742 10741 10740 10739 10738 10737 10736 10735 10734 10733 10731 10730 10729 10728 10726 10725 10723 10722 10721 10720 10719 10717 10715 10714 10712 10711 10709 10707 10705 10703
10699 10699 10699 10703 10705 10705 10705 10706 10708 10710 10714 10716 10717 10717 10716 10717 10719 10720 10723 10725 10728 10741 10750 10748 10741 10744 10761 10763 10749 10746 10746 10742 10743 10742 10742 10743 10743 10746 10747 10745 10746 10747 10748 10750 10750 10750 10749 10749 10748 10746 10745 10744 10743 10741 10739 10738 10737 10736 10735 10734 10733 10731 10730 10729 10728 10727 10726 10724 10723 10722 10721 10720 10718 10716 10715 10714 10712 10711 10709 10708 10706 10704 10702 10700 10699 10697
10691 10691 10691 10694 10695 10696 10697 10698 10700 10702 10706 10709 10711 10711 10708 10708 10708 10709 10714 10717 10723 10737 10742 10740 10735 10737 10755 10760 10746 10746 10747 10739 10738 10737 10736 10738 10737 10738 10739 10738 10738 10739 10741 10743 10743 10743 10743 10743 10742 10741 10740 10739 10738 10736 10734 10733 10732 10731 10730 10729 10727 10726 10724 10723 10722 10721 10720 10719 10718 10717 10716 10714 10712 10710 10709 10708 10706 10704 10703 10702 10700 10698 10695 10693 10691 10690
10681 10682 10683 10685 10687 10690 10691 10692 10694 10696 10699 10701 10701 10700 10696 10696 10698 10702 10709 10713 10719 10728 10730 10730 10729 10733 10751 10756 10744 10743 10743 10737 10736 10733 10732 10734 10732 10732 10733 10733 10733 10733 10735 10736 10737 10738 10738 10737 10736 10735 10735 10733 10732 10731 10729 10728 10727 10726 10725 10723 10722 10720 10719 10718 10717 10716 10715 10714 10713 10711 10710 10708 10706 10705 10704 10702 10700 10698 10696 10695 10693 10691 10689 10687 10685 10683
10674 10676 10678 10682 10684 10685 10685 10685 10686 10687 10686 10686 10687 10687 10687 10690 10695 10701 10707 10707 10709 10714 10717 10719 10722 10733 10748 10749 10741 10739 10736 10734 10735 10731 10728 10728 10725 10726 10729 10728 10728 10730 10730 10731 10731 10733 10732 10732 10731 10730 10729 10728 10726 10725 10724 10723 10722 10720 10719 10718 10716 10715 10713 10712 10711 10710 10709 10708 10707 10705 10704 10702 10700 10699 10698 10696 10694 10692 10690 10688 10687 10685 10683 10681 10679 10677
10666 10670 10675 10676 10676 10675 10675 10674 10674 10674 10672 10674 10678 10680 10683 10689 10693 10696 10696 10696 10699 10703 10706 10710 10718 10733 10743 10740 10736 10735 10732 10731 10732 10729 10725 10722 10719 10720 10721 10721 10723 10726 10726 10726 10726 10727 10727 10726 10725 10725 10724 10723 10721 10720 10719 10718 10716 10715 10713 10712 10711 10710 10708 10707 10706 10705 10704 10702 10700 10699 10697 10696 10694 10693 10692 10690 10688 10686 10685 10682 10680 10678 10676 10674 10672 10670
10656 10663 10667 10663 10663 10664 10663 10662 10662 10662 10663 10668 10671 10673 10680 10686 10685 10682 10684 10689 10692 10694 10699 10705 10715 10729 10734 10732 10732 10731 10729 10727 10726 10725 10721 10717 10716 10715 10713 10713 10716 10720 10722 10722 10721 10721 10720 10720 10719 10719 10718 10717 10716 10715 10714 10713 10711 10709 10707 10706 10705 10704 10702 10701 10700 10699 10697 10696 10694 10693 10691 10689 10688 10687 10685 10684 10682 10681 10679 10676 10674 10672 10670 10669 10666 10664
10646 10653 10655 10651 10652 10654 10653 10653 10653 10654 10656 10660 10665 10670 10677 10678 10673 10670 10675 10683 10684 10686 10695 10701 10709 10718 10722 10727 10730 10726 10725 10723 10718 10718 10716 10714 10714 10711 10707 10706 10708 10712 10714 10716 10717 10715 10714 10713 10713 10714 10713 10712 10711 10710 10709 10707 10706 10704 10702 10701 10700 10698 10696 10694 10693 10692 10690 10689 10688 10686 10685 10683 10682 10680 10679 10677 10676 10675 10673 10670 10667 10666 10664 10662 10660 10657
10635 10640 10644 10643 10644 10645 10645 10646 10646 10647 10650 10655 10661 10667 10667 10665 10664 10665 10666 10673 10675 10677 10686 10694 10701 10707 10712 10723 10727 10719 10717 10717 10713 10713 10711 10710 10710 10708 10705 10702 10703 10704 10705 10707 10709 10708 10707 10706 10706 10707 10707 10707 10706 10704 10703 10701 10699 10698 10696 10695 10694 10692 10690 10688 10686 10685 10684 10683 10682 10680 10679 10677 10676 10674 10673 10671 10669 10668 10666 10663 10661 10659 10657 10655 10653 10650
10627 10630 10635 10636 10636 10637 10637 10637 10640 10644 10647 10650 10654 10657 10654 10653 10658 10659 10657 10661 10666 10667 10675 10687 10695 10700 10707 10718 10719 10711 10709 10710 10708 10707 10706 10705 10705 10704 10702 10699 10699 10699 10698 10699 10701 10701 10700 10700 10699 10699 10700 10701 10700 10698 10697 10695 10693 10692 10691 10690 10688 10686 10685 10682 10681 10680 10678 10677 10675 10674 10673 10671 10670 10668 10666 10664 10663 10661 10658 10656 10654 10652 10649 10647 10645 10642
10619 10619 10626 10630 10630 10629 10629 10632 10639 10644 10644 10642 10643 10644 10644 10645 10648 10649 10649 10653 10657 10658 10666 10677 10685 10693 10704 10710 10707 10703 10702 10702 10701 10701 10700 10700 10700 10698 10696 10694 10694 10694 10693 10694 10696 10695 10694 10694 10693 10693 10693 10694 10694 10692 10691 10689 10688 10686 10685 10684 10682 10680 10678 10676 10675 10673 10672 10670 10669 10668 10666 10665 10664 10662 10660 10657 10655 10653 10651 10649 10647 10645 10642 10640 10637 10634
10606 10609 10617 10622 10622 10622 10626 10633 10637 10636 10631 10629 10631 10633 10636 10639 10640 10642 10644 10647 10650 10651 10656 10664 10670 10685 10699 10699 10695 10695 10694 10694 10695 10695 10694 10693 10692 10691 10689 10688 10687 10686 10685 10688 10692 10691 10688 10688 10687 10685 10685 10687 10688 10687 10685 10683 10682 10681 10680 10678 10676 10674 10672 10670 10668 10667 10665 10664 10662 10660 10659 10658 10656 10655 10653 10650 10648 10646 10643 10641 10639 10637 10635 10632 10629 10626
10596 10599 10604 10608 10613 10617 10623 10626 10624 10622 10621 10620 10622 10627 10632 10636 10635 10635 10638 10643 10644 10642 10644 10646 10651 10673 10692 10688 10684 10687 10685 10686 10689 10689 10688 10686 10683 10682 10682 10682 10679 10678 10677 10679 10684 10687 10683 10680 10680 10679 10678 10679 10681 10681 10679 10678 10676 10674 10674 10672 10670 10668 10665 10663 10662 10660 10659 10657 10655 10653 10651 10650 10648 10646 10645 10642 10640 10638 10636 10634 10632 10629 10627 10623 10620 10617
10585 10586 10590 10597 10606 10611 10612 10613 10613 10614 10614 10613 10616 10624 10629 10630 10630 10628 10628 10633 10633 10628 10630 10631 10633 10660 10684 10679 10674 10678 10677 10679 10683 10681 10679 10677 10674 10673 10673 10674 10671 10670 10672 10672 10675 10678 10676 10674 10673 10671 10672 10673 10674 10674 10672 10671 10670 10669 10668 10666 10663 10661 10658 10657 10655 10653 10652 10650 10648 10646 10644 10642 10640 10638 10637 10634 10632 10630 10627 10625 10623 10621 10618 10615 10612 10609
10574 10575 10581 10589 10596 10598 10600 10604 10606 10607 10608 10609 10617 10623 10622 10621 10621 10616 10613 10616 10616 10616 10622 10619 10618 10648 10674 10669 10665 10671 10671 10672 10674 10671 10669 10667 10663 10662 10662 10664 10664 10664 10666 10666 10666 10667 10667 10668 10667 10664 10664 10667 10668 10667 10664 10663 10663 10663 10661 10659 10656 10653 10651 10649 10648 10646 10645 10643 10641 10639 10636 10634 10632 10630 10629 10626 10624 10622 10619 10617 10614 10612 10609 10606 10603 10600
10563 10564 10570 10576 10579 10584 10591 10596 10601 10605 10607 10608 10613 10613 10609 10609 10607 10601 10600 10601 10600 10606 10614 10608 10608 10638 10663 10659 10657 10664 10663 10663 10663 10660 10657 10655 10652 10651 10652 10654 10656 10657 10658 10657 10657 10658 10658 10659 10661 10659 10658 10660 10661 10659 10655 10654 10655 10654 10653 10651 10648 10646 10644 10642 10640 10638 10637 10635 10633 10631 10629 10626 10624 10622 10620 10618 10616 10613 10611 10608 10606 10603 10600 10597 10594 10591
10553 10554 10558 10561 10566 10576 10586 10594 10600 10603 10598 10594 10598 10599 10598 10597 10593 10590 10591 10586 10586 10599 10606 10600 10605 10630 10652 10654 10652 10654 10652 10650 10650 10648 10647 10646 10643 10641 10642 10644 10646 10648 10648 10647 10648 10650 10649 10648 10651 10654 10653 10652 10651 10650 10647 10645 10645 10645 10643 10641 10639 10638 10636 10634 10631 10630 10629 10627 10625 10623 10621 10618 10616 10614 10612 10610 10607 10605 10602 10599 10597 10594 10591 10588 10586 10583
10542 10543 10547 10550 10556 10568 10580 10588 10591 10588 10581 10579 10586 10590 10589 10587 10584 10581 10577 10575 10584 10594 10593 10594 10604 10620 10639 10646 10643 10642 10641 10639 10638 10638 10637 10637 10633 10631 10632 10635 10636 10637 10638 10639 10639 10640 10639 10639 10641 10645 10646 10644 10641 10640 10639 10637 10635 10634 10633 10631 10630 10629 10627 10625 10623 10621 10620 10618 10616 10614 10612 10610 10608 10605 10603 10600 10598 10596 10593 10590 10587 10585 10582 10579 10576 10573
10529 10533 10539 10541 10545 10554 10566 10574 10573 10569 10569 10573 10577 10578 10578 10577 10573 10568 10567 10573 10582 10580 10579 10595 10606 10608 10620 10632 10633 10634 10633 10629 10628 10627 10625 10624 10624 10624 10624 10624 10626 10628 10630 10631 10630 10629 10631 10632 10634 10635 10636 10635 10632 10630 10630 10628 10625 10624 10623 10622 10621 10619 10618 10616 10614 10613 10611 10609 10607 10605 10603 10601 10599 10596 10593 10591 10589 10586 10583 10580 10577 10575 10572 10569 10566 10563
10517 10521 10529 10530 10531 10538 10547 10556 10557 10556 10559 10563 10565 10567 10567 10564 10562 10559 10562 10572 10575 10569 10575 10596 10600 10592 10600 10616 10625 10626 10620 10616 10618 10617 10614 10614 10613 10613 10614 10615 10617 10618 10620 10619 10618 10620 10623 10624 10625 10625 10625 10624 10621 10620 10620 10618 10616 10614 10612 10612 10611 10609 10608 10607 10606 10604 10602 10599 10597 10595 10594 10591 10589 10587 10584 10582 10579 10576 10574 10571 10568 10565 10562 10558 10555 10552
10505 10511 10520 10519 10517 10524 10532 10539 10543 10543 10546 10549 10552 10554 10554 10553 10553 10555 10559 10568 10569 10565 10570 10581 10581 10578 10589 10604 10613 10614 10607 10605 10608 10606 10604 10604 10602 10602 10605 10608 10607 10604 10607 10610 10609 10609 10613 10614 10615 10615 10614 10613 10612 10610 10609 10606 10605 10605 10604 10602 10600 10599 10598 10598 10596 10593 10591 10589 10587 10585 10583 10580 10578 10576 10575 10572 10569 10566 10564 10561 10558 10555 10551 10548 10545 10542
10495 10500 10507 10505 10502 10509 10521 10528 10529 10527 10527 10532 10536 10540 10543 10546 10548 10553 10558 10562 10561 10556 10558 10561 10560 10570 10590 10596 10594 10598 10597 10594 10595 10596 10595 10593 10591 10592 10594 10596 10595 10593 10595 10600 10600 10598 10600 10603 10605 10604 10603 10604 10604 10601 10598 10596 10595 10594 10593 10591 10590 10590 10589 10587 10585 10583 10581 10579 10577 10575 10573 10570 10568 10566 10563 10561 10559 10556 10553 10551 10548 10545 10541 10538 10534 10531
10485 10488 10494 10494 10490 10498 10515 10519 10516 10513 10509 10510 10521 10532 10540 10544 10546 10547 10548 10547 10546 10545 10547 10548 10548 10564 10586 10584 10575 10583 10587 10582 10584 10586 10583 10580 10580 10582 10584 10585 10584 10584 10586 10588 10590 10590 10590 10591 10592 10593 10593 10594 10594 10592 10588 10587 10586 10583 10581 10581 10581 10580 10578 10576 10575 10573 10571 10569 10567 10565 10562 10560 10557 10555 10552 10550 10548 10546 10543 10540 10537 10534 10531 10527 10524 10520
10477 10479 10485 10487 10481 10491 10508 10507 10502 10500 10491 10492 10514 10531 10536 10537 10534 10531 10532 10537 10542 10540 10538 10539 10543 10556 10568 10566 10564 10572 10571 10565 10568 10570 10569 10571 10573 10573 10575 10575 10573 10574 10576 10577 10578 10579 10579 10579 10579 10581 10583 10584 10584 10582 10578 10577 10577 10574 10572 10572 10570 10569 10568 10566 10564 10563 10561 10559 10557 10555 10553 10550 10548 10544 10541 10539 10536 10535 10533 10529 10526 10523 10520 10517 10514 10510
10465 10469 10475 10476 10472 10479 10494 10495 10486 10480 10475 10489 10514 10524 10522 10520 10517 10516 10524 10533 10537 10531 10526 10529 10536 10544 10548 10549 10552 10556 10553 10550 10554 10556 10558 10562 10564 10563 10564 10564 10563 10564 10565 10565 10564 10564 10566 10568 10569 10571 10573 10573 10571 10570 10568 10567 10567 10566 10564 10562 10560 10559 10557 10556 10554 10553 10551 10550 10548 10545 10543 10540 10537 10534 10530 10527 10525 10523 10521 10518 10515 10512 10509 10506 10503 10499
10454 10459 10463 10464 10462 10466 10479 10479 10464 10457 10471 10493 10505 10506 10506 10506 10506 10509 10517 10523 10524 10519 10515 10517 10525 10532 10535 10536 10536 10535 10536 10538 10540 10544 10549 10551 10551 10551 10550 10550 10551 10550 10550 10551 10551 10553 10556 10558 10561 10562 10562 10560 10558 10558 10558 10557 10556 10555 10553 10551 10550 10548 10546 10545 10543 10542 10540 10538 10537 10534 10532 10530 10526 10523 10520 10516 10514 10511 10509 10507 10504 10501 10498 10495 10492 10489
10446 10450 10451 10451 10450 10451 10458 10459 10448 10451 10471 10484 10486 10492 10496 10497 10500 10500 10500 10507 10511 10506 10501 10506 10518 10525 10525 10523 10520 10515 10516 10521 10523 10533 10544 10543 10537 10534 10532 10534 10535 10534 10537 10540 10541 10545 10548 10549 10550 10550 10547 10546 10546 10545 10545 10545 10543 10543 10541 10540 10539 10537 10535 10534 10532 10530 10529 10527 10525 10523 10521 10518 10515 10512 10509 10506 10503 10500 10497 10495 10492 10489 10486 10484 10481 10478
10434 10435 10435 10434 10435 10437 10440 10442 10442 10446 10454 10464 10478 10491 10491 10488 10490 10483 10476 10487 10499 10496 10494 10502 10512 10517 10514 10509 10502 10497 10497 10500 10506 10523 10536 10530 10519 10515 10515 10519 10522 10522 10526 10530 10531 10535 10537 10536 10537 10536 10534 10534 10534 10533 10532 10531 10530 10530 10528 10527 10527 10526 10524 10523 10521 10519 10517 10515 10513 10511 10509 10506 10504 10501 10498 10495 10492 10489 10486 10483 10480 10477 10475 10472 10470 10467
10420 10418 10419 10418 10419 10423 10424 10424 10427 10429 10436 10459 10484 10492 10484 10476 10475 10465 10454 10464 10485 10493 10490 10493 10500 10504 10500 10493 10486 10482 10480 10480 10493 10516 10522 10508 10497 10500 10505 10510 10513 10514 10517 10519 10520 10521 10521 10521 10522 10521 10521 10521 10520 10519 10519 10518 10517 10517 10516 10515 10514 10513 10512 10511 10509 10508 10506 10504 10502 10500 10497 10495 10493 10490 10487 10484 10481 10478 10475 10472 10469 10466 10463 10460 10458 10455
10409 10407 10407 10403 10402 10408 10410 10407 10410 10413 10426 10456 10481 10485 10474 10463 10459 10450 10434 10442 10475 10490 10480 10477 10485 10486 10481 10474 10468 10464 10462 10467 10484 10502 10501 10488 10485 10490 10495 10500 10503 10504 10505 10506 10507 10507 10507 10507 10508 10508 10507 10507 10506 10506 10505 10504 10504 10504 10503 10502 10502 10500 10499 10498 10496 10495 10493 10492 10490 10488 10486 10483 10481 10478 10475 10472 10469 10466 10464 10461 10458 10455 10452 10449 10447 10444
10397 10397 10396 10392 10392 10399 10400 10397 10399 10403 10415 10441 10465 10469 10459 10449 10442 10427 10412 10432 10474 10483 10466 10465 10469 10462 10459 10458 10451 10446 10449 10458 10470 10479 10479 10478 10480 10481 10482 10486 10488 10489 10492 10494 10494 10494 10494 10495 10495 10494 10494 10493 10492 10492 10492 10491 10491 10490 10490 10489 10488 10487 10486 10484 10483 10482 10480 10479 10477 10475 10473 10471 10468 10466 10463 10460 10458 10455 10452 10450 10447 10443 10441 10438 10435 10432
10383 10385 10385 10383 10384 10387 10386 10384 10388 10394 10405 10429 10449 10452 10443 10431 10418 10404 10407 10438 10466 10463 10451 10452 10448 10438 10440 10443 10436 10434 10440 10445 10452 10461 10466 10468 10469 10469 10470 10472 10473 10476 10479 10481 10481 10482 10482 10482 10482 10482 10481 10480 10480 10479 10479 10478 10478 10477 10476 10475 10473 10473 10472 10470 10470 10468 10467 10465 10464 10462 10460 10458 10455 10453 10451 10448 10446 10443 10440 10437 10434 10431 10429 10426 10423 10420
10371 10371 10370 10371 10373 10374 10374 10373 10374 10380 10396 10421 10437 10437 10426 10409 10397 10401 10420 10437 10439 10433 10432 10432 10426 10423 10427 10428 10425 10427 10431 10432 10436 10443 10450 10453 10455 10458 10458 10458 10461 10464 10466 10467 10468 10469 10469 10469 10469 10469 10469 10468 10467 10466 10466 10466 10465 10464 10463 10462 10461 10460 10459 10457 10456 10455 10453 10452 10451 10449 10447 10445 10443 10441 10439 10436 10434 10431 10428 10425 10422 10419 10416 10413 10410 10407
10357 10355 10354 10358 10363 10363 10362 10360 10359 10368 10389 10411 10419 10416 10406 10395 10392 10403 10414 10415 10412 10414 10418 10417 10416 10416 10416 10417 10418 10418 10418 10419 10421 10425 10430 10434 10439 10443 10444 10445 10448 10450 10451 10453 10454 10454 10455 10455 10455 10455 10455 10455 10454 10454 10453 10453 10452 10451 10450 10449 10448 10447 10445 10444 10443 10441 10440 10439 10437 10436 10434 10432 10430 10428 10426 10424 10421 10418 10416 10413 10410 10406 10403 10400 10396 10392
10341 10343 10344 10349 10351 10347 10345 10348 10353 10363 10380 10391 10394 10394 10391 10388 10390 10394 10395 10397 10402 10406 10407 10408 10411 10410 10406 10406 10409 10407 10408 10410 10411 10411 10413 10415 10418 10424 10428 10431 10433 10434 10435 10437 10438 10439 10440 10440 10440 10440 10440 10440 10441 10440 10440 10439 10438 10437 10436 10435 10434 10432 10431 10430 10428 10427 10427 10425 10424 10422 10420 10418 10417 10414 10412 10410 10407 10405 10402 10399 10396 10392 10388 10385 10382 10377
10328 10334 10335 10336 10335 10330 10330 10337 10346 10355 10362 10367 10372 10379 10379 10377 10380 10384 10384 10388 10392 10393 10395 10399 10402 10401 10397 10395 10396 10398 10399 10401 10400 10400 10401 10401 10403 10407 10411 10415 10418 10419 10420 10421 10421 10422 10423 10423 10424 10424 10424 10425 10425 10424 10424 10424 10423 10422 10421 10420 10419 10418 10416 10416 10414 10413 10413 10411 10409 10408 10406 10404 10402 10399 10397 10395 10393 10390 10387 10384 10381 10377 10373 10370 10365 10361
10319 10323 10320 10318 10319 10318 10319 10326 10334 10340 10345 10348 10353 10361 10365 10363 10366 10371 10374 10376 10378 10380 10383 10387 10389 10390 10388 10385 10386 10390 10391 10391 10391 10390 10390 10391 10392 10394 10397 10401 10402 10403 10404 10405 10406 10407 10407 10407 10407 10407 10407 10407 10407 10407 10407 10406 10405 10405 10404 10403 10403 10402 10401 10401 10400 10399 10397 10396 10394 10392 10390 10388 10386 10384 10382 10379 10377 10374 10371 10368 10365 10362 10358 10354 10350 10346
10306 10307 10303 10302 10306 10306 10308 10317 10324 10326 10329 10334 10336 10341 10347 10348 10349 10355 10361 10365 10367 10367 10369 10372 10376 10378 10379 10378 10379 10380 10381 10383 10383 10381 10382 10382 10382 10383 10385 10387 10388 10389 10390 10390 10391 10392 10393 10393 10392 10391 10390 10390 10391 10391 10391 10390 10390 10389 10389 10388 10387 10386 10385 10385 10384 10382 10381 10379 10377 10375 10373 10371 10369 10367 10365 10363 10360 10358 10355 10353 10350 10346 10343 10339 10336 10332
10291 10290 10285 10287 10294 10295 10297 10308 10315 10313 10312 10316 10320 10324 10331 10332 10332 10337 10344 10351 10355 10356 10356 10359 10361 10364 10366 10367 10368 10369 10371 10372 10372 10371 10372 10372 10372 10373 10374 10374 10375 10376 10377 10377 10378 10378 10379 10379 10378 10377 10376 10375 10375 10376 10375 10375 10376 10375 10375 10374 10372 10371 10370 10369 10368 10367 10366 10364 10362 10360 10358 10356 10353 10351 10349 10347 10345 10343 10340 10338 10335 10332 10328 10325 10321 10317
10276 10274 10272 10275 10280 10283 10289 10299 10303 10298 10295 10300 10305 10309 10314 10316 10317 10321 10327 10333 10338 10341 10342 10344 10346 10349 10352 10353 10354 10356 10358 10358 10358 10359 10360 10360 10361 10362 10362 10362 10362 10363 10364 10365 10366 10366 10366 10367 10366 10365 10363 10361 10361 10361 10361 10361 10361 10361 10361 10359 10357 10355 10355 10354 10353 10353 10352 10350 10349 10346 10344 10342 10339 10337 10335 10333 10330 10328 10326 10323 10320 10317 10313 10309 10305 10300
10262 10262 10263 10264 10264 10267 10278 10288 10287 10278 10278 10288 10293 10292 10294 10299 10304 10308 10311 10314 10318 10321 10325 10329 10331 10334 10337 10339 10340 10341 10342 10342 10343 10345 10346 10348 10349 10349 10349 10349 10349 10350 10350 10351 10352 10352 10353 10353 10353 10353 10351 10349 10349 10349 10348 10347 10346 10345 10345 10344 10342 10340 10338 10337 10336 10336 10335 10335 10333 10331 10329 10327 10325 10322 10320 10318 10316 10313 10310 10307 10303 10299 10295 10290 10285 10281
10247 10247 10249 10249 10248 10253 10264 10270 10266 10258 10263 10276 10281 10276 10275 10282 10288 10292 10295 10296 10299 10303 10307 10311 10314 10316 10319 10321 10323 10325 10327 10328 10328 10329 10331 10334 10335 10336 10337 10337 10336 10336 10336 10335 10335 10335 10335 10336 10337 10338 10337 10337 10337 10336 10335 10334 10332 10330 10329 10329 10328 10326 10324 10322 10321 10320 10319 10318 10316 10315 10313 10311 10308 10306 10304 10301 10298 10295 10291 10287 10282 10278 10274 10270 10267 10264